Home > Weather > New York > Past weeks

Flag for USA Weather for the Past 2 Weeks in New York, New York, USA

Now
50 °F

Clear.


Feels Like: 47 °F
Forecast: 49 / 52 °F
Wind: 8 mph from South

Location: New York City - Central Park

Current Time: May 1, 2016 at 12:14:00 AM

Latest Report: Apr 30, 2016 at 10:51 PM


Visibility: 10 mi

Pressure: 30.24 "Hg

Humidity: 61%

Dew Point: 37 °F

Location of New YorkLocation

Historic Weather in New York — Graph

°F

New York Temperature Yesterday

Maximum temperature yesterday: 64 °F (at 3:51 PM)
Minimum temperature yesterday: 47 °F (at 12:51 AM)
Average temperature yesterday: 54 °F

High & Low Weather Summary for the Past Weeks

 TemperatureHumidityPressure
High81 °F (Apr 18, 2:51 PM)90% (Apr 23, 3:58 AM)30.48 "Hg (Apr 23, 3:58 AM)
Low44 °F (Apr 16, 5:51 AM)9% (Apr 20, 5:51 PM)29.65 "Hg (Apr 26, 2:51 PM)
Average58 °F46%30.06 "Hg
* Reported Apr 15 9:51 PM — Apr 30 9:51 PM, New York, Weather by CustomWeather, © 2016

Note: Actual official high and low records may vary slightly from our data, if they occured in-between our weather recording intervals... More about our weather records

Advertising

New York Weather History for the Previous 24 Hours

Scroll right to see more
 ConditionsComfort  
Time TempWeatherWind HumidityBarometerVisibility
9:51 PM
Sat, Apr 30
51 °FClear.8 mph56%30.24 "Hg10 mi
8:51 PM52 °FClear.3 mph53%30.24 "Hg10 mi
7:51 PM53 °FSunny.7 mph47%30.24 "Hg10 mi
6:51 PM55 °FSunny.5 mph40%30.23 "Hg10 mi
5:51 PM57 °FSunny.9 mph39%30.21 "Hg10 mi
4:51 PM61 °FSunny.6 mph34%30.21 "Hg10 mi
3:51 PM64 °FSunny.3 mph28%30.19 "Hg10 mi
2:51 PM62 °FSunny.7 mph34%30.20 "Hg10 mi
1:51 PM62 °FSunny.N/A41%30.19 "Hg10 mi
12:51 PM62 °FScattered clouds.8 mph38%30.18 "Hg10 mi
11:51 AM60 °FSunny.6 mph41%30.20 "Hg10 mi
10:51 AM56 °FOvercast.7 mph49%30.20 "Hg10 mi
9:51 AM53 °FOvercast.3 mph51%30.22 "Hg10 mi
8:51 AM51 °FMostly cloudy.3 mph59%30.22 "Hg10 mi
7:51 AM49 °FOvercast.8 mph66%30.22 "Hg10 mi
6:51 AM48 °FOvercast.3 mph66%30.21 "Hg10 mi
5:51 AM47 °FOvercast.5 mph69%30.17 "Hg10 mi
4:51 AM47 °FOvercast.3 mph69%30.17 "Hg10 mi
3:51 AM47 °FOvercast.7 mph66%30.16 "Hg10 mi
2:51 AM48 °FOvercast.7 mph68%30.14 "Hg10 mi
1:51 AM48 °FOvercast.5 mph71%30.16 "Hg10 mi
12:51 AM47 °FOvercast.3 mph66%30.16 "Hg10 mi
Weather by CustomWeather, © 2016

See weather overviewHow to use our weather pages